,,PA_Meas_PMT16A,,PR_Meas_QMR101_102,,RH_Meas_QMH101,,SR_Meas_QMS101,,TA_Meas_QMH101,,GenWind,,GenWind,
time,status,PA,status,PR,status,RH,status,SR,status,TA,status,DirAvg,status,SpdAvg,
2010-03-02, 00:00:04,VALID,920.015,VALID,0,VALID,97.6483,VALID,0.107441,VALID,19.9353,VALID,192,VALID,0.894531,
2010-03-02, 00:01:04,VALID,920.054,VALID,0,VALID,97.6483,VALID,0.107441,VALID,19.9158,VALID,192,VALID,0.793359,
2010-03-02, 00:02:04,VALID,920.014,VALID,0,VALID,97.6483,VALID,0,VALID,19.9158,VALID,192,VALID,0.637109,
2010-03-02, 00:03:04,VALID,919.99,VALID,0,VALID,97.6636,VALID,0.107441,VALID,19.9353,VALID,192,VALID,0.415234,
2010-03-02, 00:04:04,VALID,920.008,VALID,0,VALID,97.6636,VALID,0.107441,VALID,19.9368,VALID,192,VALID,0.497266,
2010-03-02, 00:05:04,VALID,920.026,VALID,0,VALID,97.6712,VALID,0.107441,VALID,19.9158,VALID,192,VALID,0.560938,
2010-03-02, 00:06:04,VALID,920.067,VALID,0,VALID,97.6788,VALID,0.107441,VALID,19.9563,VALID,192,VALID,0.175,
2010-03-02, 00:07:04,VALID,920.091,VALID,0,VALID,97.6483,VALID,0.107441,VALID,19.9563,VALID,192,VALID,0.652734,
2010-03-02, 00:08:04,VALID,920.139,VALID,0,VALID,97.6636,VALID,0.107441,VALID,19.9158,VALID,192,VALID,0.719141,
2010-03-02, 00:09:04,VALID,920.158,VALID,0,VALID,97.656,VALID,0.107441,VALID,19.9158,VALID,192,VALID,1.04258,
2010-03-02, 00:10:04,VALID,920.195,VALID,0,VALID,97.656,VALID,0.107441,VALID,19.9158,VALID,192,VALID,0.616016,
2010-03-02, 00:11:04,VALID,920.244,VALID,0,VALID,97.6483,VALID,0.107441,VALID,19.9173,VALID,192,VALID,1.35156,
2010-03-02, 00:12:04,VALID,920.251,VALID,0,VALID,97.6636,VALID,0.214882,VALID,19.9158,VALID,128,VALID,1.30547,
2010-03-02, 00:13:04,VALID,920.29,VALID,0,VALID,97.656,VALID,0.107441,VALID,19.9173,VALID,125,VALID,1.525,
2010-03-02, 00:14:04,VALID,920.244,VALID,0,VALID,97.6636,VALID,0.107441,VALID,19.8963,VALID,145,VALID,1.23516,
2010-03-02, 00:15:04,VALID,920.237,VALID,0,VALID,97.6407,VALID,0.107441,VALID,19.9368,VALID,170,VALID,1.0625,
2010-03-02, 00:16:04,VALID,920.249,VALID,0,VALID,97.656,VALID,0.107441,VALID,19.9353,VALID,171,VALID,1.24414,
2010-03-02, 00:17:04,VALID,920.245,VALID,0,VALID,97.6788,VALID,0.107441,VALID,19.9353,VALID,194,VALID,0.955469,
2010-03-02, 00:18:04,VALID,920.244,VALID,0,VALID,97.6636,VALID,0.214882,VALID,19.9563,VALID,194,VALID,0.885547,
2010-03-02, 00:19:04,VALID,920.242,VALID,0,VALID,97.656,VALID,0.107441,VALID,19.9548,VALID,194,VALID,0.821875,
2010-03-02, 00:20:04,VALID,920.243,VALID,0,VALID,97.6636,VALID,0,VALID,19.9353,VALID,194,VALID,0.620703,
2010-03-02, 00:21:04,VALID,920.236,VALID,0,VALID,97.6636,VALID,0.107441,VALID,19.9548,VALID,194,VALID,0.473828,
2010-03-02, 00:22:04,VALID,920.198,VALID,0,VALID,97.6712,VALID,0.107441,VALID,19.9353,VALID,194,VALID,0.701563,
2010-03-02, 00:23:04,VALID,920.203,VALID,0,VALID,97.6712,VALID,0.107441,VALID,19.9353,VALID,194,VALID,0.876953,
2010-03-02, 00:24:04,VALID,920.164,VALID,0,VALID,97.6712,VALID,0.214882,VALID,19.9548,VALID,194,VALID,0.5125,
2010-03-02, 00:25:04,VALID,920.101,VALID,0,VALID,97.6636,VALID,0.107441,VALID,19.9743,VALID,194,VALID,0.559766,
2010-03-02, 00:26:04,VALID,920.057,VALID,0,VALID,97.656,VALID,0,VALID,19.9743,VALID,194,VALID,0.458594,
2010-03-02, 00:27:04,VALID,920.029,VALID,0,VALID,97.6483,VALID,0.107441,VALID,20.0133,VALID,194,VALID,0.436719,
2010-03-02, 00:28:04,VALID,920.01,VALID,0,VALID,97.6483,VALID,0.107441,VALID,20.0133,VALID,194,VALID,0.401563,
2010-03-02, 00:29:04,VALID,920.008,VALID,0,VALID,97.6636,VALID,0.107441,VALID,20.0328,VALID,194,VALID,0.429688,
2010-03-02, 00:30:04,VALID,920.037,VALID,0,VALID,97.656,VALID,0.107441,VALID,20.0523,VALID,194,VALID,0.198828,
2010-03-02, 00:31:04,VALID,920.012,VALID,0,VALID,97.6407,VALID,0.107441,VALID,20.0523,VALID,194,VALID,0.371094,
2010-03-02, 00:32:04,VALID,920.006,VALID,0,VALID,97.6331,VALID,0.107441,VALID,20.0328,VALID,194,VALID,0.784375,
2010-03-02, 00:33:04,VALID,920.048,VALID,0,VALID,97.6483,VALID,0.107441,VALID,20.0343,VALID,187,VALID,0.839063,
2010-03-02, 00:34:04,VALID,920.022,VALID,0,VALID,97.656,VALID,0.107441,VALID,19.9938,VALID,173,VALID,0.653125,
2010-03-02, 00:35:04,VALID,920.012,VALID,0,VALID,97.6483,VALID,0.107441,VALID,19.9938,VALID,129,VALID,1.22227,
2010-03-02, 00:36:04,VALID,919.978,VALID,0,VALID,97.6255,VALID,0.107441,VALID,19.9938,VALID,129,VALID,0.854297,
2010-03-02, 00:37:04,VALID,919.919,VALID,0,VALID,97.6331,VALID,0.107441,VALID,19.9938,VALID,129,VALID,0.636328,
2010-03-02, 00:38:04,VALID,919.872,VALID,0,VALID,97.6483,VALID,0.107441,VALID,19.9938,VALID,129,VALID,0.536719,
2010-03-02, 00:39:04,VALID,919.837,VALID,0,VALID,97.6255,VALID,0.107441,VALID,19.9938,VALID,129,VALID,0.339063,
2010-03-02, 00:40:04,VALID,919.82,VALID,0,VALID,97.6331,VALID,0.107441,VALID,19.9938,VALID,129,VALID,0.332422,
2010-03-02, 00:41:04,VALID,919.798,VALID,0,VALID,97.6483,VALID,0.107441,VALID,19.9758,VALID,129,VALID,0.769141,
2010-03-02, 00:42:04,VALID,919.77,VALID,0,VALID,97.6331,VALID,0.107441,VALID,19.9368,VALID,129,VALID,0.951563,
2010-03-02, 00:43:04,VALID,919.804,VALID,0,VALID,97.6407,VALID,0.107441,VALID,19.9158,VALID,129,VALID,0.873828,
2010-03-02, 00:44:04,VALID,919.784,VALID,0,VALID,97.6331,VALID,0.107441,VALID,19.8963,VALID,129,VALID,0.942969,
2010-03-02, 00:45:04,VALID,919.746,VALID,0,VALID,97.6483,VALID,0.107441,VALID,19.8963,VALID,129,VALID,0.721875,
2010-03-02, 00:46:04,VALID,919.77,VALID,0,VALID,97.6331,VALID,0.107441,VALID,19.8963,VALID,129,VALID,0.773438,
2010-03-02, 00:47:04,VALID,919.735,VALID,0,VALID,97.6331,VALID,0.107441,VALID,19.9173,VALID,129,VALID,0.649609,
2010-03-02, 00:48:04,VALID,919.708,VALID,0,VALID,97.6483,VALID,0.107441,VALID,19.9158,VALID,129,VALID,0.612891,
2010-03-02, 00:49:04,VALID,919.675,VALID,0,VALID,97.656,VALID,0.107441,VALID,19.9353,VALID,129,VALID,0.594922,
2010-03-02, 00:50:04,VALID,919.605,VALID,0,VALID,97.656,VALID,0,VALID,19.9353,VALID,129,VALID,0.673047,
2010-03-02, 00:51:04,VALID,919.604,VALID,0,VALID,97.6407,VALID,0.107441,VALID,19.9743,VALID,129,VALID,0.175781,
2010-03-02, 00:52:04,VALID,919.555,VALID,0,VALID,97.6483,VALID,0.107441,VALID,19.9938,VALID,129,VALID,0.227344,
2010-03-02, 00:53:04,VALID,919.514,VALID,0,VALID,97.6407,VALID,0.107441,VALID,20.0133,VALID,129,VALID,0.653125,
2010-03-02, 00:54:04,VALID,919.499,VALID,0,VALID,97.6255,VALID,0.107441,VALID,19.9938,VALID,129,VALID,0.832812,
2010-03-02, 00:55:04,VALID,919.442,VALID,0,VALID,97.6331,VALID,0.107441,VALID,20.0133,VALID,129,VALID,0.610156,
2010-03-02, 00:56:04,VALID,919.418,VALID,0,VALID,97.656,VALID,0.107441,VALID,19.9938,VALID,129,VALID,0.396484,
2010-03-02, 00:57:04,VALID,919.408,VALID,0,VALID,97.6407,VALID,0.107441,VALID,19.9938,VALID,129,VALID,0.23125,
2010-03-02, 00:58:04,VALID,919.397,VALID,0,VALID,97.6483,VALID,0.107441,VALID,19.9743,VALID,129,VALID,0,
2010-03-02, 00:59:04,VALID,919.416,VALID,0,VALID,97.6483,VALID,0.107441,VALID,19.9953,VALID,129,VALID,0,
2010-03-02, 01:00:04,VALID,919.375,VALID,0,VALID,97.6483,VALID,0.107441,VALID,19.9548,VALID,129,VALID,0.608984,
2010-03-02, 01:01:04,VALID,919.401,VALID,0,VALID,97.6331,VALID,0.107441,VALID,19.9353,VALID,129,VALID,0.865625,
2010-03-02, 01:02:04,VALID,919.394,VALID,0,VALID,97.6636,VALID,0,VALID,19.8963,VALID,129,VALID,0.826953,
2010-03-02, 01:03:04,VALID,919.371,VALID,0,VALID,97.6483,VALID,0.107441,VALID,19.8573,VALID,129,VALID,0.935547,
2010-03-02, 01:04:04,VALID,919.344,VALID,0,VALID,97.6407,VALID,0,VALID,19.8393,VALID,129,VALID,1.11797,
2010-03-02, 01:05:04,VALID,919.34,VALID,0,VALID,97.6407,VALID,0,VALID,19.8393,VALID,129,VALID,0.973828,
2010-03-02, 01:06:04,VALID,919.312,VALID,0,VALID,97.6407,VALID,0,VALID,19.7793,VALID,128,VALID,1.12734,
2010-03-02, 01:07:04,VALID,919.27,VALID,0,VALID,97.6483,VALID,0.107441,VALID,19.7988,VALID,128,VALID,0.378125,
2010-03-02, 01:08:04,VALID,919.241,VALID,0,VALID,97.6788,VALID,0.107441,VALID,19.7988,VALID,128,VALID,0.407813,
2010-03-02, 01:09:04,VALID,919.245,VALID,0,VALID,97.656,VALID,0.107441,VALID,19.8183,VALID,128,VALID,0.440234,
2010-03-02, 01:10:04,VALID,919.214,VALID,0,VALID,97.656,VALID,0.107441,VALID,19.8378,VALID,128,VALID,0.432813,
2010-03-02, 01:11:04,VALID,919.223,VALID,0,VALID,97.656,VALID,0.107441,VALID,19.8183,VALID,128,VALID,0.621094,
2010-03-02, 01:12:04,VALID,919.233,VALID,0,VALID,97.6865,VALID,0.107441,VALID,19.7793,VALID,128,VALID,1.03711,
2010-03-02, 01:13:04,VALID,919.225,VALID,0,VALID,97.6407,VALID,0.107441,VALID,19.7403,VALID,128,VALID,1.40078,
2010-03-02, 01:14:04,VALID,919.239,VALID,0,VALID,97.6636,VALID,0.107441,VALID,19.7208,VALID,127,VALID,1.28008,
2010-03-02, 01:15:04,VALID,919.22,VALID,0,VALID,97.6636,VALID,0.107441,VALID,19.7613,VALID,69,VALID,1.64219,
2010-03-02, 01:16:04,VALID,919.186,VALID,0,VALID,97.6636,VALID,0.107441,VALID,19.7613,VALID,67,VALID,1.24648,
2010-03-02, 01:17:04,VALID,919.14,VALID,0,VALID,97.6788,VALID,0.107441,VALID,19.7403,VALID,67,VALID,1.2082,
2010-03-02, 01:18:04,VALID,919.087,VALID,0,VALID,97.6865,VALID,0.107441,VALID,19.7613,VALID,67,VALID,0.782031,
2010-03-02, 01:19:04,VALID,919.069,VALID,0,VALID,97.6865,VALID,0.107441,VALID,19.7793,VALID,67,VALID,0.881641,
2010-03-02, 01:20:04,VALID,919.05,VALID,0,VALID,97.6788,VALID,0.107441,VALID,19.7793,VALID,67,VALID,0.527734,
2010-03-02, 01:21:04,VALID,918.974,VALID,0,VALID,97.6865,VALID,0.107441,VALID,19.7793,VALID,67,VALID,0.792188,
2010-03-02, 01:22:04,VALID,918.957,VALID,0,VALID,97.6788,VALID,0.107441,VALID,19.7793,VALID,67,VALID,1.0082,
2010-03-02, 01:23:04,VALID,918.96,VALID,0,VALID,97.7017,VALID,0.107441,VALID,19.8003,VALID,67,VALID,0.683594,
2010-03-02, 01:24:04,VALID,918.953,VALID,0,VALID,97.7017,VALID,0,VALID,19.8003,VALID,67,VALID,0.580859,
2010-03-02, 01:25:04,VALID,918.935,VALID,0,VALID,97.6865,VALID,0.107441,VALID,19.7793,VALID,67,VALID,0.523828,
2010-03-02, 01:26:04,VALID,918.931,VALID,0,VALID,97.7017,VALID,0.107441,VALID,19.8198,VALID,67,VALID,0.671094,
2010-03-02, 01:27:04,VALID,918.945,VALID,0,VALID,97.6865,VALID,0,VALID,19.8198,VALID,67,VALID,0.520312,
2010-03-02, 01:28:04,VALID,918.915,VALID,0,VALID,97.7169,VALID,0,VALID,19.8198,VALID,67,VALID,0.900391,
2010-03-02, 01:29:04,VALID,918.913,VALID,0,VALID,97.7017,VALID,0.107441,VALID,19.8378,VALID,136,VALID,1.25977,
2010-03-02, 01:30:04,VALID,918.873,VALID,0,VALID,97.6865,VALID,0,VALID,19.8783,VALID,141,VALID,1.38711,
2010-03-02, 01:31:04,VALID,918.872,VALID,0,VALID,97.7017,VALID,0.107441,VALID,19.8573,VALID,132,VALID,1.33828,
2010-03-02, 01:32:04,VALID,918.863,VALID,0,VALID,97.7017,VALID,0.107441,VALID,19.8573,VALID,151,VALID,0.769141,
2010-03-02, 01:33:04,VALID,918.786,VALID,0,VALID,97.6788,VALID,0,VALID,19.8573,VALID,180,VALID,0.758203,
2010-03-02, 01:34:04,VALID,918.697,VALID,0,VALID,97.6941,VALID,0.107441,VALID,19.8573,VALID,180,VALID,0.496875,
2010-03-02, 01:35:04,VALID,918.701,VALID,0,VALID,97.6788,VALID,0,VALID,19.8963,VALID,180,VALID,0.446484,
2010-03-02, 01:36:04,VALID,918.645,VALID,0,VALID,97.6788,VALID,0.107441,VALID,19.8768,VALID,180,VALID,0.431641,
2010-03-02, 01:37:04,VALID,918.609,VALID,0,VALID,97.7169,VALID,0.107441,VALID,19.9173,VALID,180,VALID,0.558203,
2010-03-02, 01:38:04,VALID,918.598,VALID,0,VALID,97.7093,VALID,0.107441,VALID,19.8978,VALID,180,VALID,0.849609,
2010-03-02, 01:39:04,VALID,918.536,VALID,0,VALID,97.7017,VALID,0.107441,VALID,19.8783,VALID,180,VALID,0.774609,
2010-03-02, 01:40:04,VALID,918.524,VALID,0,VALID,97.7017,VALID,0.107441,VALID,19.8588,VALID,118,VALID,1.20508,
2010-03-02, 01:41:04,VALID,918.517,VALID,0,VALID,97.7017,VALID,0.107441,VALID,19.8378,VALID,133,VALID,1.2918,
2010-03-02, 01:42:04,VALID,918.471,VALID,0,VALID,97.7246,VALID,0,VALID,19.8573,VALID,133,VALID,1.24492,
2010-03-02, 01:43:04,VALID,918.431,VALID,0,VALID,97.7017,VALID,0,VALID,19.8783,VALID,142,VALID,1.11055,
2010-03-02, 01:44:04,VALID,918.394,VALID,0,VALID,97.7017,VALID,0.107441,VALID,19.8573,VALID,163,VALID,0.745313,
2010-03-02, 01:45:04,VALID,918.318,VALID,0,VALID,97.7093,VALID,0.107441,VALID,19.8768,VALID,163,VALID,0.680859,
2010-03-02, 01:46:04,VALID,918.266,VALID,0,VALID,97.7093,VALID,0.107441,VALID,19.9173,VALID,163,VALID,0.654688,
2010-03-02, 01:47:04,VALID,918.207,VALID,0,VALID,97.7246,VALID,0.107441,VALID,19.9173,VALID,163,VALID,0.291797,
2010-03-02, 01:48:04,VALID,918.185,VALID,0,VALID,97.6788,VALID,0.107441,VALID,19.9368,VALID,163,VALID,0.66875,
2010-03-02, 01:49:04,VALID,918.142,VALID,0,VALID,97.6865,VALID,0,VALID,19.9368,VALID,163,VALID,0.5875,
2010-03-02, 01:50:04,VALID,918.184,VALID,0,VALID,97.7093,VALID,0.107441,VALID,19.9158,VALID,163,VALID,0.832812,
2010-03-02, 01:51:04,VALID,918.109,VALID,0,VALID,97.6941,VALID,0.107441,VALID,19.8963,VALID,165,VALID,0.990234,
2010-03-02, 01:52:04,VALID,918.104,VALID,0,VALID,97.7017,VALID,0,VALID,19.8963,VALID,152,VALID,1.52305,
2010-03-02, 01:53:04,VALID,918.096,VALID,0,VALID,97.7017,VALID,0.107441,VALID,19.9173,VALID,161,VALID,1.18906,
2010-03-02, 01:54:04,VALID,918.075,VALID,0,VALID,97.6788,VALID,0.107441,VALID,19.9368,VALID,163,VALID,1.46211,
2010-03-02, 01:55:04,VALID,918.028,VALID,0,VALID,97.6788,VALID,0.107441,VALID,19.9158,VALID,163,VALID,0.897266,
2010-03-02, 01:56:04,VALID,918.004,VALID,0,VALID,97.7093,VALID,0,VALID,19.9173,VALID,144,VALID,1.41758,
2010-03-02, 01:57:04,VALID,917.98,VALID,0,VALID,97.6788,VALID,0.107441,VALID,19.9368,VALID,163,VALID,1.11445,
2010-03-02, 01:58:04,VALID,917.963,VALID,0,VALID,97.6865,VALID,0,VALID,19.9173,VALID,163,VALID,1.53398,
2010-03-02, 01:59:04,VALID,917.948,VALID,0,VALID,97.6941,VALID,0,VALID,19.9368,VALID,163,VALID,0.9125,
2010-03-02, 02:00:04,VALID,917.901,VALID,0,VALID,97.6865,VALID,0,VALID,19.9173,VALID,163,VALID,0.899219,
2010-03-02, 02:01:04,VALID,917.897,VALID,0,VALID,97.6865,VALID,0,VALID,19.9368,VALID,163,VALID,1.17188,
2010-03-02, 02:02:04,VALID,917.904,VALID,0,VALID,97.6788,VALID,0,VALID,19.9563,VALID,163,VALID,1.04531,
2010-03-02, 02:03:04,VALID,917.874,VALID,0,VALID,97.6788,VALID,0,VALID,19.9563,VALID,163,VALID,1.07266,
2010-03-02, 02:04:04,VALID,917.88,VALID,0,VALID,97.6865,VALID,0,VALID,19.9368,VALID,163,VALID,0.982813,
2010-03-02, 02:05:04,VALID,917.878,VALID,0,VALID,97.6941,VALID,0,VALID,19.9563,VALID,163,VALID,0.667188,
2010-03-02, 02:06:04,VALID,917.901,VALID,0,VALID,97.6865,VALID,0,VALID,19.9563,VALID,163,VALID,1.27656,
2010-03-02, 02:07:04,VALID,917.87,VALID,0,VALID,97.6941,VALID,0,VALID,19.9563,VALID,163,VALID,0.912109,
2010-03-02, 02:08:04,VALID,917.907,VALID,0,VALID,97.6941,VALID,0.107441,VALID,19.9368,VALID,163,VALID,0.966797,
2010-03-02, 02:09:04,VALID,917.915,VALID,0,VALID,97.6636,VALID,0,VALID,19.9368,VALID,163,VALID,0.912891,
2010-03-02, 02:10:04,VALID,917.948,VALID,0,VALID,97.6941,VALID,0,VALID,19.9368,VALID,163,VALID,1.06523,
2010-03-02, 02:11:04,VALID,917.972,VALID,0,VALID,97.6636,VALID,0,VALID,19.9173,VALID,163,VALID,1.16289,
2010-03-02, 02:12:04,VALID,917.965,VALID,0,VALID,97.6865,VALID,0,VALID,19.9173,VALID,163,VALID,1.52695,
2010-03-02, 02:13:04,VALID,917.949,VALID,0,VALID,97.6865,VALID,0,VALID,19.8978,VALID,79,VALID,1.6,
2010-03-02, 02:14:04,VALID,918.001,VALID,0,VALID,97.6865,VALID,0,VALID,19.8978,VALID,79,VALID,1.24844,
2010-03-02, 02:15:04,VALID,917.978,VALID,0,VALID,97.6712,VALID,0,VALID,19.8978,VALID,79,VALID,0.799609,
2010-03-02, 02:16:04,VALID,917.962,VALID,0,VALID,97.6941,VALID,0,VALID,19.8783,VALID,79,VALID,0.878516,
2010-03-02, 02:17:04,VALID,917.94,VALID,0,VALID,97.6788,VALID,0,VALID,19.8978,VALID,79,VALID,0.633984,
2010-03-02, 02:18:04,VALID,917.959,VALID,0,VALID,97.6788,VALID,0,VALID,19.8588,VALID,79,VALID,0.692578,
2010-03-02, 02:19:04,VALID,917.946,VALID,0,VALID,97.6865,VALID,0.107441,VALID,19.8783,VALID,80,VALID,0.849219,
2010-03-02, 02:20:04,VALID,917.93,VALID,0,VALID,97.6788,VALID,0,VALID,19.8783,VALID,80,VALID,0.46875,
2010-03-02, 02:21:04,VALID,917.94,VALID,0,VALID,97.6941,VALID,0.107441,VALID,19.8573,VALID,80,VALID,0.607813,
2010-03-02, 02:22:04,VALID,917.931,VALID,0,VALID,97.7093,VALID,0,VALID,19.8588,VALID,80,VALID,0.730469,
2010-03-02, 02:23:04,VALID,917.929,VALID,0,VALID,97.6865,VALID,0,VALID,19.8588,VALID,80,VALID,0.663281,
2010-03-02, 02:24:04,VALID,917.905,VALID,0,VALID,97.7017,VALID,0,VALID,19.8588,VALID,114,VALID,1.02148,
2010-03-02, 02:25:04,VALID,917.893,VALID,0,VALID,97.7017,VALID,0.107441,VALID,19.8783,VALID,114,VALID,0.907031,
2010-03-02, 02:26:04,VALID,917.863,VALID,0,VALID,97.6865,VALID,0,VALID,19.8588,VALID,134,VALID,1.0168,
2010-03-02, 02:27:04,VALID,917.852,VALID,0,VALID,97.7017,VALID,0,VALID,19.8588,VALID,148,VALID,1.14688,
2010-03-02, 02:28:04,VALID,917.852,VALID,0,VALID,97.7017,VALID,0,VALID,19.8393,VALID,148,VALID,1.19414,
2010-03-02, 02:29:04,VALID,917.866,VALID,0,VALID,97.7169,VALID,0,VALID,19.8588,VALID,148,VALID,1.42383,
2010-03-02, 02:30:04,VALID,917.875,VALID,0,VALID,97.7017,VALID,0.107441,VALID,19.8588,VALID,148,VALID,0.785547,
2010-03-02, 02:31:04,VALID,917.847,VALID,0,VALID,97.7093,VALID,0,VALID,19.8393,VALID,148,VALID,0.983594,
2010-03-02, 02:32:04,VALID,917.882,VALID,0,VALID,97.7017,VALID,0,VALID,19.8393,VALID,148,VALID,0.861719,
2010-03-02, 02:33:04,VALID,917.9,VALID,0,VALID,97.7169,VALID,0,VALID,19.8588,VALID,148,VALID,0.8875,
2010-03-02, 02:34:04,VALID,917.871,VALID,0,VALID,97.7017,VALID,0,VALID,19.8393,VALID,148,VALID,0.763672,
2010-03-02, 02:35:04,VALID,917.857,VALID,0,VALID,97.7093,VALID,0,VALID,19.8183,VALID,148,VALID,0.677734,
2010-03-02, 02:36:04,VALID,917.833,VALID,0,VALID,97.7017,VALID,0,VALID,19.8378,VALID,148,VALID,0.823828,
2010-03-02, 02:37:04,VALID,917.813,VALID,0,VALID,97.7398,VALID,0,VALID,19.8393,VALID,122,VALID,0.966797,
2010-03-02, 02:38:04,VALID,917.787,VALID,0,VALID,97.7169,VALID,0,VALID,19.8393,VALID,116,VALID,0.758594,
2010-03-02, 02:39:04,VALID,917.763,VALID,0,VALID,97.7017,VALID,0,VALID,19.8588,VALID,116,VALID,0.742969,
2010-03-02, 02:40:04,VALID,917.721,VALID,0,VALID,97.7169,VALID,0,VALID,19.8378,VALID,116,VALID,0.635547,
2010-03-02, 02:41:04,VALID,917.728,VALID,0,VALID,97.7246,VALID,0,VALID,19.8783,VALID,116,VALID,0.762109,
2010-03-02, 02:42:04,VALID,917.737,VALID,0,VALID,97.7246,VALID,0,VALID,19.8783,VALID,116,VALID,1.00664,
2010-03-02, 02:43:04,VALID,917.703,VALID,0,VALID,97.7017,VALID,0,VALID,19.8768,VALID,116,VALID,0.685156,
2010-03-02, 02:44:04,VALID,917.705,VALID,0,VALID,97.7169,VALID,0.107441,VALID,19.8978,VALID,158,VALID,1.31719,
2010-03-02, 02:45:04,VALID,917.693,VALID,0,VALID,97.7169,VALID,0,VALID,19.8978,VALID,157,VALID,1.03125,
2010-03-02, 02:46:04,VALID,917.693,VALID,0,VALID,97.7093,VALID,0,VALID,19.9173,VALID,157,VALID,0.682813,
2010-03-02, 02:47:04,VALID,917.65,VALID,0,VALID,97.7093,VALID,0,VALID,19.9173,VALID,181,VALID,1.60781,
2010-03-02, 02:48:04,VALID,917.646,VALID,0,VALID,97.7093,VALID,0.107441,VALID,19.9173,VALID,150,VALID,1.2668,
2010-03-02, 02:49:04,VALID,917.646,VALID,0,VALID,97.7169,VALID,0,VALID,19.9173,VALID,163,VALID,1.21875,
2010-03-02, 02:50:04,VALID,917.646,VALID,0,VALID,97.7017,VALID,0,VALID,19.9368,VALID,142,VALID,1.31641,
2010-03-02, 02:51:04,VALID,917.588,VALID,0,VALID,97.7017,VALID,0,VALID,19.9368,VALID,141,VALID,1.32969,
2010-03-02, 02:52:04,VALID,917.593,VALID,0,VALID,97.7093,VALID,0,VALID,19.9368,VALID,141,VALID,0.902734,
2010-03-02, 02:53:04,VALID,917.584,VALID,0,VALID,97.7169,VALID,0.107441,VALID,19.9368,VALID,141,VALID,0.877344,
2010-03-02, 02:54:04,VALID,917.558,VALID,0,VALID,97.7093,VALID,0,VALID,19.9368,VALID,141,VALID,0.897266,
2010-03-02, 02:55:04,VALID,917.576,VALID,0,VALID,97.6788,VALID,0,VALID,19.9578,VALID,164,VALID,1.25273,
2010-03-02, 02:56:04,VALID,917.543,VALID,0,VALID,97.6941,VALID,0,VALID,19.9563,VALID,167,VALID,1.12148,
2010-03-02, 02:57:04,VALID,917.546,VALID,0,VALID,97.6712,VALID,0,VALID,19.9368,VALID,167,VALID,0.554297,
2010-03-02, 02:58:04,VALID,917.565,VALID,0,VALID,97.7169,VALID,0.107441,VALID,19.9353,VALID,167,VALID,0.948828,
2010-03-02, 02:59:04,VALID,917.558,VALID,0,VALID,97.7017,VALID,0.107441,VALID,19.9368,VALID,144,VALID,1.31602,
2010-03-02, 03:00:04,VALID,917.594,VALID,0,VALID,97.6865,VALID,0.107441,VALID,19.9368,VALID,142,VALID,1.1625,
2010-03-02, 03:01:04,VALID,917.594,VALID,0,VALID,97.6865,VALID,0.107441,VALID,19.9563,VALID,136,VALID,0.808594,
2010-03-02, 03:02:04,VALID,917.565,VALID,0,VALID,97.7017,VALID,0.107441,VALID,19.9758,VALID,136,VALID,0.553516,
2010-03-02, 03:03:04,VALID,917.578,VALID,0,VALID,97.6941,VALID,0,VALID,19.9953,VALID,136,VALID,0.383594,
2010-03-02, 03:04:04,VALID,917.578,VALID,0,VALID,97.6865,VALID,0,VALID,19.9548,VALID,191,VALID,0.445313,
2010-03-02, 03:05:04,VALID,917.587,VALID,0,VALID,97.6712,VALID,0,VALID,19.9758,VALID,191,VALID,0.369922,
2010-03-02, 03:06:04,VALID,917.554,VALID,0,VALID,97.6636,VALID,0.107441,VALID,19.9353,VALID,191,VALID,1.0375,
2010-03-02, 03:07:04,VALID,917.595,VALID,0,VALID,97.6788,VALID,0.107441,VALID,19.9563,VALID,190,VALID,0.625,
2010-03-02, 03:08:04,VALID,917.554,VALID,0,VALID,97.6712,VALID,0,VALID,19.9758,VALID,190,VALID,0.767578,
2010-03-02, 03:09:04,VALID,917.567,VALID,0,VALID,97.656,VALID,0.107441,VALID,19.9758,VALID,130,VALID,1.12188,
2010-03-02, 03:10:04,VALID,917.569,VALID,0,VALID,97.6636,VALID,0.107441,VALID,19.9548,VALID,131,VALID,0.772266,
2010-03-02, 03:11:04,VALID,917.575,VALID,0,VALID,97.6712,VALID,0.107441,VALID,19.9353,VALID,131,VALID,0.812109,
2010-03-02, 03:12:04,VALID,917.59,VALID,0,VALID,97.6483,VALID,0.107441,VALID,19.9548,VALID,155,VALID,1.18516,
2010-03-02, 03:13:04,VALID,917.556,VALID,0,VALID,97.656,VALID,0.107441,VALID,19.9743,VALID,162,VALID,0.474609,
2010-03-02, 03:14:04,VALID,917.566,VALID,0,VALID,97.6636,VALID,0,VALID,19.9938,VALID,162,VALID,0.970703,
2010-03-02, 03:15:04,VALID,917.549,VALID,0,VALID,97.6483,VALID,0,VALID,20.0148,VALID,162,VALID,1.01211,
2010-03-02, 03:16:04,VALID,917.541,VALID,0,VALID,97.6636,VALID,0.107441,VALID,20.0343,VALID,162,VALID,0.829297,
2010-03-02, 03:17:04,VALID,917.534,VALID,0,VALID,97.656,VALID,0.107441,VALID,20.0328,VALID,162,VALID,0.310937,
2010-03-02, 03:18:04,VALID,917.572,VALID,0,VALID,97.6636,VALID,0.107441,VALID,20.0328,VALID,170,VALID,0.701172,
2010-03-02, 03:19:04,VALID,917.545,VALID,0,VALID,97.6331,VALID,0,VALID,20.0343,VALID,170,VALID,1.01992,
2010-03-02, 03:20:04,VALID,917.554,VALID,0,VALID,97.6331,VALID,0.107441,VALID,19.9938,VALID,170,VALID,0.390625,
2010-03-02, 03:21:04,VALID,917.526,VALID,0,VALID,97.6483,VALID,0.107441,VALID,19.9953,VALID,170,VALID,0.167187,
2010-03-02, 03:22:04,VALID,917.572,VALID,0,VALID,97.656,VALID,0.107441,VALID,19.9743,VALID,170,VALID,0.109375,
2010-03-02, 03:23:04,VALID,917.562,VALID,0,VALID,97.6407,VALID,0.107441,VALID,19.9743,VALID,170,VALID,0.616016,
2010-03-02, 03:24:04,VALID,917.542,VALID,0,VALID,97.6636,VALID,0,VALID,19.9953,VALID,170,VALID,0.490625,
2010-03-02, 03:25:04,VALID,917.534,VALID,0,VALID,97.6483,VALID,0.107441,VALID,19.9548,VALID,170,VALID,0.429688,
2010-03-02, 03:26:04,VALID,917.503,VALID,0,VALID,97.6407,VALID,0.107441,VALID,19.9563,VALID,170,VALID,0.458594,
2010-03-02, 03:27:04,VALID,917.52,VALID,0,VALID,97.6255,VALID,0,VALID,19.9158,VALID,170,VALID,0.820703,
2010-03-02, 03:28:04,VALID,917.522,VALID,0,VALID,97.6407,VALID,0,VALID,19.8978,VALID,170,VALID,0.621875,
2010-03-02, 03:29:04,VALID,917.513,VALID,0,VALID,97.6483,VALID,0,VALID,19.8783,VALID,170,VALID,0.753516,
2010-03-02, 03:30:04,VALID,917.511,VALID,0,VALID,97.6407,VALID,0,VALID,19.8798,VALID,170,VALID,0.496094,
2010-03-02, 03:31:04,VALID,917.542,VALID,0,VALID,97.656,VALID,0,VALID,19.8783,VALID,170,VALID,1.25391,
2010-03-02, 03:32:04,VALID,917.501,VALID,0,VALID,97.656,VALID,0,VALID,19.8993,VALID,137,VALID,1.38633,
2010-03-02, 03:33:04,VALID,917.58,VALID,0,VALID,97.6407,VALID,0,VALID,19.9383,VALID,140,VALID,0.992969,
2010-03-02, 03:34:04,VALID,917.534,VALID,0,VALID,97.6407,VALID,0,VALID,19.9383,VALID,123,VALID,1.75508,
2010-03-02, 03:35:04,VALID,917.576,VALID,0,VALID,97.6331,VALID,0,VALID,19.9173,VALID,120,VALID,0.785156,
2010-03-02, 03:36:04,VALID,917.556,VALID,0,VALID,97.6255,VALID,0,VALID,19.9578,VALID,118,VALID,0.543359,